RH
16 16 16 17 17 17 17 16 16 16 16 16 17 17 17 18 18 18 19 19 18 18 18 18 17 17 17 17 16 16 16 15 15 14 13 13 12 12 11 11 10 10 9 9 9 8 9 9 9 9 8 8 7 7 7 6 6 8 8 6 6 6 6 6 6 6 7 7 7 8 8 9 8 9 10 9 10 11 10 16 31 49 65 81 91 95 94 89
14 15 15 16 16 16 16 16 16 16 16 16 16 16 17 17 17 17 17 17 17 17 17 17 17 16 16 16 16 15 15 14 14 13 13 12 12 12 11 11 10 10 9 9 9 9 9 10 10 9 8 8 8 7 7 7 6 7 7 6 7 6 7 6 6 6 7 7 7 8 7 8 9 8 9 9 9 10 9 11 15 22 33 49 66 78 88 96
13 13 14 14 15 15 15 16 16 16 16 16 16 16 16 16 16 16 17 17 17 17 16 16 16 16 16 15 15 14 14 14 13 13 12 12 12 11 11 11 10 10 10 9 9 10 10 11 10 9 9 8 8 8 7 7 7 7 6 6 7 6 7 6 6 6 6 7 6 7 8 7 8 8 9 9 8 9 9 9 10 13 17 26 43 58 70 86
13 13 13 13 14 14 14 15 15 15 15 15 16 15 16 15 16 16 16 16 16 16 16 15 15 15 15 14 14 13 13 13 12 12 12 11 11 11 11 11 10 10 10 10 10 11 11 11 10 10 9 8 8 8 7 7 7 7 7 6 7 6 7 7 6 7 6 6 6 6 7 7 7 8 8 8 9 9 9 9 9 11 12 15 25 40 53 66
13 13 13 13 13 13 13 14 14 14 14 15 15 15 15 15 15 15 15 15 15 15 15 15 14 14 14 13 13 12 12 12 12 12 11 11 11 11 11 11 10 10 10 10 11 11 11 11 11 10 9 9 8 8 8 7 7 7 7 7 7 7 7 7 6 6 7 6 6 6 6 7 7 7 8 8 9 9 8 8 10 11 12 13 14 22 32 41
13 13 13 13 13 13 13 13 13 13 14 14 14 14 14 14 14 14 14 14 14 14 14 14 13 13 13 12 12 12 12 12 11 11 11 11 12 12 11 11 10 10 10 11 11 11 12 11 11 11 10 9 8 8 8 7 8 7 7 7 7 7 7 7 7 6 6 6 6 6 6 6 6 7 8 8 8 9 8 8 10 12 11 13 12 13 17 22
14 13 13 13 13 13 13 13 13 13 13 13 13 13 13 13 14 13 14 13 13 13 13 13 12 12 12 12 12 11 11 11 11 11 12 12 12 12 12 11 10 11 11 11 12 12 11 11 11 11 10 9 8 8 8 8 8 8 7 8 7 7 7 7 7 7 6 6 6 6 6 6 6 6 7 7 7 9 9 9 9 10 11 11 12 12 12 15
15 14 14 14 14 14 14 14 13 13 13 13 13 13 13 13 13 13 13 13 13 12 12 12 12 12 11 12 11 12 12 12 12 12 12 13 13 13 12 12 11 11 11 11 12 12 12 12 11 12 11 10 9 8 8 8 8 8 8 8 8 7 7 7 7 7 7 7 7 6 6 6 6 6 7 6 7 9 9 8 8 9 9 9 11 12 12 12
15 15 15 14 14 14 14 14 14 14 14 14 14 13 13 13 13 13 13 13 13 12 12 12 12 12 11 12 12 12 13 12 13 13 13 13 13 13 12 12 11 11 11 12 12 12 12 12 12 12 11 11 10 9 9 9 8 8 8 8 8 7 7 7 7 7 7 7 7 7 7 6 6 6 7 7 7 8 8 7 8 8 8 8 10 10 11 11
15 16 15 15 15 15 15 16 15 15 14 14 14 14 14 14 13 13 13 13 13 13 13 12 12 12 12 12 12 13 13 13 14 13 13 14 14 14 13 12 12 12 12 12 12 12 12 12 12 12 11 12 11 11 10 9 9 8 9 8 8 8 7 8 7 8 7 7 7 7 7 6 7 6 6 7 7 7 7 7 7 7 7 7 9 9 10 11
15 16 16 16 16 16 16 16 16 15 15 15 15 15 15 15 15 14 14 14 14 14 13 13 13 13 13 13 13 13 14 14 14 14 14 14 14 14 13 12 12 12 12 12 12 12 12 12 12 12 12 12 11 11 11 10 10 9 9 9 9 8 7 7 7 8 8 8 8 7 8 7 7 7 6 7 7 6 6 6 6 6 7 7 8 8 9 10
15 16 16 16 17 17 17 17 17 16 16 16 16 16 16 16 16 16 16 15 15 15 14 14 14 14 14 13 14 14 14 15 15 14 14 15 15 14 13 13 13 13 13 13 13 12 13 12 12 12 12 12 12 11 11 11 10 10 10 10 10 8 9 9 7 8 8 8 8 8 8 8 8 7 7 7 6 6 6 6 6 6 6 7 7 8 8 9
15 16 16 16 17 17 18 18 18 18 17 17 16 17 17 17 17 17 17 17 16 15 15 15 15 14 14 14 14 14 14 15 15 15 15 15 15 14 14 14 14 14 14 13 13 13 13 13 12 13 12 12 12 11 11 11 10 10 11 11 10 9 13 11 8 8 9 8 9 9 9 8 8 8 8 8 7 7 7 6 6 6 6 6 6 7 7 8
15 16 16 16 17 17 17 18 18 19 19 18 18 17 17 18 17 18 18 17 17 16 16 15 15 15 14 15 14 14 15 15 15 15 15 15 15 15 14 15 15 15 15 14 14 14 14 14 13 13 13 13 12 12 12 11 11 11 11 10 10 10 12 11 9 9 9 9 9 9 9 8 8 9 8 8 8 8 8 7 7 7 6 6 6 6 6 7
15 16 17 16 17 17 17 18 19 20 20 19 19 18 18 18 18 19 18 18 18 17 17 16 15 15 15 15 15 15 15 15 16 15 16 16 15 15 15 16 16 16 16 15 16 16 15 15 15 14 14 13 13 13 13 12 12 12 11 10 10 10 10 10 9 9 8 8 8 9 9 8 8 9 9 8 8 8 8 8 8 8 7 6 6 6 6 6
14 15 16 17 17 17 17 18 19 21 21 20 19 19 18 18 19 19 19 19 19 18 17 17 16 16 16 16 16 16 16 16 16 16 16 16 16 16 16 17 17 17 17 17 17 16 16 16 15 15 15 14 14 14 14 14 13 13 12 11 10 10 10 10 9 8 8 8 8 8 8 9 8 8 8 8 8 8 8 8 8 9 8 7 7 6 7 6
13 15 15 17 17 17 18 18 20 21 21 21 20 19 19 20 20 20 20 20 19 19 18 17 16 16 17 17 17 17 17 17 17 17 17 17 17 17 17 18 18 18 17 17 17 17 17 16 16 16 16 16 16 16 16 15 15 14 13 12 12 11 10 10 9 8 8 7 7 7 7 8 7 7 8 8 8 8 8 8 8 8 7 7 7 7 7 7
12 14 15 17 17 18 18 18 21 21 22 21 20 19 20 21 22 21 21 21 20 20 19 18 17 17 17 17 18 18 18 18 18 18 18 18 18 18 19 19 18 18 18 18 18 18 18 17 18 18 18 18 17 17 17 17 17 16 15 14 13 12 12 11 11 10 9 8 8 8 8 8 7 7 7 8 8 7 8 8 8 8 7 7 7 7 7 7
12 13 14 16 17 18 18 19 21 22 22 22 20 19 21 22 22 22 21 21 21 20 19 18 17 17 17 17 18 18 18 18 18 18 18 18 18 19 18 18 18 18 18 19 18 19 19 19 20 20 20 20 19 19 18 18 19 18 18 16 14 15 14 13 13 11 10 10 9 8 8 8 8 7 8 8 7 7 8 7 8 7 7 6 6 6 6 7
11 13 14 15 17 18 18 20 21 22 22 22 21 20 21 22 22 22 22 21 21 20 20 19 18 17 17 18 18 18 18 18 17 18 18 18 18 18 18 17 18 18 19 19 19 20 21 22 22 21 21 21 21 21 20 21 20 20 20 17 17 16 16 16 14 13 12 11 10 10 9 9 9 9 8 8 8 7 8 7 8 8 7 6 5 6 5 5
11 12 14 15 17 18 19 20 22 22 22 23 22 20 21 21 22 22 22 21 21 20 20 20 19 18 17 18 18 18 19 18 18 18 18 19 19 18 18 19 19 20 20 20 20 21 22 23 22 22 22 22 22 22 22 22 21 21 21 19 19 18 18 18 15 15 14 12 12 11 10 9 9 10 9 9 9 8 8 8 9 9 8 8 7 6 6 5
12 13 14 15 17 19 19 21 21 21 21 23 23 21 21 21 21 22 22 22 22 21 21 21 20 19 18 18 19 19 19 19 20 20 20 20 20 20 20 21 21 20 20 21 21 22 22 23 23 24 24 23 23 22 21 21 20 20 20 20 20 19 20 18 18 17 14 15 14 12 12 11 10 10 10 10 10 9 9 9 9 10 9 8 8 7 6 7
12 13 14 16 18 19 20 21 20 20 22 23 23 22 21 21 22 22 23 23 23 22 22 21 21 20 19 19 19 20 20 21 21 21 22 21 22 22 22 22 22 21 21 22 22 23 23 24 25 25 25 24 23 22 21 19 19 19 20 21 20 20 21 19 19 17 16 16 14 14 14 11 12 12 11 11 11 10 9 9 9 9 10 9 8 9 7 7
13 13 15 17 18 19 20 20 20 20 22 22 22 22 21 21 22 23 24 24 24 23 22 22 22 21 21 20 20 20 21 21 22 22 22 23 23 23 23 23 22 23 23 23 25 25 25 26 26 26 25 24 23 22 21 19 19 19 20 21 21 21 20 19 19 17 17 16 15 16 14 12 13 12 13 14 12 12 10 10 11 9 10 10 9 9 8 8
13 14 15 17 19 20 20 21 21 21 22 23 24 23 21 21 23 24 24 24 24 24 23 23 22 22 22 21 21 21 21 22 22 23 23 23 24 24 24 24 24 25 26 27 27 27 27 27 26 26 24 24 23 22 22 20 20 21 21 22 21 20 19 18 17 16 15 14 15 15 12 14 12 12 22 21 12 12 11 9 10 11 11 10 11 9 8 9
13 15 16 18 20 21 21 21 21 21 23 25 24 22 21 22 24 24 24 25 25 24 24 23 23 23 22 22 22 22 23 23 23 24 24 24 25 25 26 26 27 29 28 29 29 28 28 27 26 25 24 23 23 23 23 21 21 21 21 20 18 18 17 17 16 15 16 15 14 14 13 14 10 15 24 18 13 17 23 26 16 11 11 7 10 10 8 10
14 16 17 19 20 21 21 22 22 23 25 24 22 21 22 23 24 25 25 25 25 24 24 23 24 24 23 23 24 24 24 25 25 26 26 26 27 27 28 29 30 31 31 31 30 29 28 26 26 25 24 24 23 23 22 21 21 20 19 17 17 17 16 18 19 18 18 15 15 14 14 15 12 15 16 15 23 26 41 58 39 31 36 18 9 10 8 10
15 17 18 19 20 20 22 23 23 24 23 22 21 22 23 24 25 25 25 25 25 24 24 24 24 24 25 25 25 26 27 27 28 28 28 29 29 29 29 30 31 32 33 32 31 30 27 27 26 25 25 24 23 22 21 20 19 18 18 17 18 20 20 23 23 23 22 19 20 18 16 20 17 17 15 19 32 34 52 78 70 72 74 36 12 11 9 10
15 17 18 19 20 21 22 22 22 22 21 22 22 23 24 25 26 26 26 26 25 25 25 25 26 26 27 27 27 28 28 28 29 29 29 29 29 29 29 30 32 33 33 33 32 31 29 28 27 25 24 23 22 22 20 21 20 19 21 21 23 25 25 27 27 28 26 22 25 22 20 28 27 25 24 21 32 41 56 84 91 90 72 31 13 14 9 11
16 17 18 19 20 21 21 21 21 22 22 24 24 25 26 26 27 27 27 27 26 26 27 27 27 28 28 28 28 28 28 28 28 28 28 28 28 29 29 31 32 33 33 32 33 32 29 28 26 24 22 22 23 24 24 24 23 24 25 26 29 30 29 30 31 30 29 32 38 31 23 29 30 27 25 26 39 42 44 67 75 60 41 23 16 16 12 12
18 19 19 20 21 21 22 22 23 24 24 25 25 26 27 27 28 28 28 27 27 27 27 28 28 28 28 27 27 26 26 26 26 26 27 27 29 30 31 32 32 33 33 32 31 29 26 24 23 22 23 26 28 29 29 27 26 27 27 28 30 30 30 32 35 32 29 39 45 35 27 27 27 27 24 28 38 32 25 37 39 26 21 20 16 15 17 15
19 20 21 21 22 22 23 24 24 24 25 25 26 27 27 28 28 27 28 27 28 29 28 28 28 27 27 25 25 25 25 26 26 27 29 30 32 33 34 35 34 33 30 27 26 24 23 23 23 26 28 31 32 31 30 29 29 29 28 30 30 31 31 32 47 53 40 42 45 33 28 27 25 27 26 27 28 22 18 20 19 17 17 16 17 18 17 17
21 22 22 23 23 23 24 24 24 25 25 26 26 27 27 28 28 27 28 28 28 29 27 27 26 25 25 24 25 25 25 27 29 30 32 33 35 35 35 34 30 28 25 24 24 23 24 25 27 31 32 33 34 32 33 33 34 33 32 34 32 34 34 31 52 69 55 51 49 35 30 29 27 29 32 35 31 22 20 19 17 19 17 15 17 18 17 19
22 22 23 23 23 24 23 24 25 25 26 26 26 27 27 27 27 26 26 26 25 25 24 23 23 24 25 25 27 27 28 30 30 31 32 32 32 30 29 28 25 25 24 25 26 27 29 31 33 36 36 37 38 40 42 40 39 39 37 39 36 35 37 36 48 61 61 65 58 42 39 40 37 37 36 35 32 26 20 19 19 18 19 20 19 18 20 21
22 22 22 23 23 24 24 24 25 24 25 25 24 25 25 23 23 22 22 22 21 22 22 23 24 25 26 27 28 28 28 29 28 28 28 27 28 27 27 27 26 26 27 28 30 31 34 38 40 42 45 48 50 52 51 46 46 46 40 40 40 37 39 43 47 50 55 62 54 47 50 47 40 43 43 33 29 29 22 23 30 25 20 20 20 22 22 22
22 23 22 23 23 23 23 22 21 21 20 20 19 20 21 19 19 20 20 20 21 22 22 23 25 25 25 25 26 26 26 26 26 27 28 28 29 29 28 28 27 28 29 30 34 36 43 49 49 55 65 65 61 59 54 49 47 47 44 42 45 48 47 52 61 61 56 53 49 48 50 43 36 47 62 62 55 53 45 46 59 65 58 41 25 24 23 23
20 20 20 20 19 19 18 17 17 17 16 17 17 18 18 18 19 20 20 21 21 22 23 24 24 25 25 25 25 26 26 28 29 30 32 31 30 30 29 29 28 29 29 33 39 45 54 61 57 61 69 66 57 51 47 45 42 43 51 49 46 52 53 55 67 69 63 57 52 49 46 43 44 52 70 86 91 92 87 82 85 88 83 59 31 27 29 26
17 18 18 18 17 16 16 16 16 16 16 17 17 18 18 19 20 20 21 21 22 22 23 23 24 24 25 25 26 27 28 30 31 32 32 31 30 30 30 31 31 32 35 41 46 47 49 51 49 48 49 48 47 44 41 41 39 42 52 51 47 54 55 55 60 64 66 62 56 52 46 48 59 63 65 72 74 75 78 83 83 70 53 40 31 32 33 30
19 19 18 18 17 17 17 16 16 16 16 16 17 18 19 19 20 21 21 21 21 22 22 22 23 24 24 25 26 27 28 30 30 31 31 31 32 34 35 37 37 39 42 42 42 40 38 38 39 38 38 39 42 41 39 40 41 42 45 44 45 50 51 52 55 58 64 61 55 52 46 51 66 66 58 53 47 42 42 46 52 44 31 30 33 33 33 34
20 19 18 18 18 17 17 17 17 16 15 15 15 16 17 18 20 20 21 21 21 21 22 22 24 24 26 27 28 29 31 32 32 33 34 35 38 39 39 39 38 36 35 33 32 33 33 35 36 36 37 40 43 45 46 48 49 49 49 48 48 47 45 46 47 50 53 52 54 54 51 63 77 72 61 54 45 40 39 38 41 42 40 40 38 35 36 36
20 19 19 19 19 20 19 19 19 17 16 16 15 15 16 17 18 19 19 20 21 21 22 23 24 25 26 28 29 31 32 32 32 32 32 32 33 33 31 30 29 27 28 29 30 33 36 39 41 42 43 44 46 49 51 53 55 58 59 60 61 61 60 57 54 54 53 51 54 55 54 64 72 66 59 54 47 40 39 40 45 50 51 49 45 42 43 40
21 21 21 22 22 22 21 21 21 20 18 17 16 16 15 16 17 18 19 19 20 21 21 22 22 22 23 24 25 26 26 25 25 25 25 25 25 25 24 25 26 27 30 32 34 38 42 45 45 46 47 47 49 49 50 51 54 56 58 60 62 64 67 66 64 65 65 62 63 61 59 63 62 56 52 50 47 43 40 41 44 49 53 53 49 44 44 45
22 23 23 24 24 24 23 22 22 22 22 20 19 18 17 17 17 17 19 19 19 20 20 20 19 19 20 20 21 21 21 22 22 23 24 24 24 25 26 27 29 30 33 35 37 40 42 45 46 46 46 48 51 52 54 56 57 58 58 58 58 57 58 58 56 58 62 66 70 68 67 74 72 66 62 60 58 54 50 47 45 45 49 49 47 43 42 44
23 24 26 26 25 24 23 22 21 21 23 23 22 22 21 21 21 21 21 21 21 21 22 22 22 22 22 22 23 23 23 24 25 26 27 28 29 30 30 32 33 34 36 36 37 38 40 44 47 48 48 49 52 54 56 58 61 62 62 62 61 59 58 56 52 52 53 54 56 54 62 80 84 73 66 65 68 67 62 58 53 49 49 48 47 44 40 40
26 26 27 26 25 23 22 22 21 20 20 21 21 21 22 22 23 24 25 25 25 25 25 26 26 26 27 27 28 28 28 29 29 29 30 32 33 34 35 36 37 39 40 40 41 43 44 47 49 50 52 54 57 59 58 58 59 60 61 61 61 61 62 62 60 60 59 55 51 47 53 70 73 63 56 54 58 61 59 58 57 55 55 54 53 52 47 43
26 25 25 25 23 21 21 21 20 19 18 17 17 18 18 19 19 21 22 23 24 25 25 26 26 26 26 27 28 29 29 30 31 32 33 34 35 37 38 39 40 41 41 41 43 44 45 48 51 54 57 59 62 64 62 59 56 55 55 55 56 58 60 63 62 62 63 60 58 57 56 59 59 53 51 49 49 49 47 47 48 49 53 56 59 61 57 50
25 24 24 23 22 21 20 20 19 18 17 16 16 17 16 16 16 17 17 18 18 20 21 22 22 23 23 23 24 25 25 27 28 30 31 31 32 33 34 35 35 37 37 36 37 39 41 44 47 52 56 58 61 64 63 59 55 52 50 49 51 53 55 58 59 61 63 62 62 64 61 63 65 60 57 56 53 51 49 48 50 50 50 50 53 59 61 54
25 24 23 22 22 21 21 21 20 19 19 18 18 19 18 18 18 18 18 18 19 19 20 20 20 20 21 21 22 23 23 24 25 26 26 27 28 29 29 29 29 29 30 30 31 34 36 39 40 43 47 50 53 56 58 58 56 54 52 49 49 51 53 54 55 57 61 64 64 63 60 62 65 62 61 60 58 58 60 67 76 76 70 64 60 62 64 63
25 25 23 23 23 24 23 23 24 23 23 23 23 23 23 22 22 22 22 22 22 22 22 22 22 22 22 22 23 23 24 25 26 26 27 27 28 28 28 28 28 28 29 29 30 32 33 35 36 37 40 43 45 49 52 53 54 54 53 52 52 54 54 55 56 56 58 61 63 62 61 59 57 56 57 56 56 56 62 79 96 98 92 87 83 84 87 87
26 25 24 24 26 27 27 26 26 27 27 27 27 27 27 26 25 25 25 24 24 25 25 25 25 25 25 25 25 26 26 27 28 29 30 30 30 30 29 30 30 31 32 33 34 35 35 35 36 36 38 40 42 45 47 47 49 49 49 50 52 55 56 58 60 61 60 62 64 64 62 57 54 54 55 55 54 48 52 76 98 102 99 94 93 96 95 94
27 26 26 27 29 30 30 29 28 27 28 28 29 29 28 28 27 27 27 27 26 26 25 25 25 25 26 25 26 27 27 28 30 30 31 31 31 31 31 31 32 32 33 35 36 37 38 38 38 37 39 40 41 44 45 46 47 46 45 46 48 50 52 54 56 57 57 58 59 60 59 58 58 59 58 58 57 52 61 84 98 100 100 98 98 98 87 82
28 28 29 30 32 32 31 31 30 30 30 29 29 29 29 29 28 27 27 27 28 27 25 24 24 24 25 25 25 26 27 28 29 30 30 30 30 30 29 29 30 30 31 34 36 38 38 39 39 38 40 43 43 44 47 48 48 47 46 46 47 47 48 49 50 51 51 50 48 49 50 51 53 54 55 57 59 64 80 100 103 99 99 97 99 101 92 88
Wind_Speed
53 53 52 51 51 50 49 49 48 47 46 45 44 44 43 42 42 42 42 42 41 40 40 40 40 40 40 41 41 41 42 42 42 42 42 42 41 41 40 39 38 36 34 33 31 29 28 27 26 26 26 25 24 23 22 21 20 19 19 20 20 21 22 22 23 24 25 26 26 27 27 27 27 26 26 26 26 25 24 23 22 22 22 22 22 22 22 21
53 53 53 52 51 51 50 49 49 48 47 47 46 45 44 44 43 43 43 43 42 42 42 42 42 42 42 42 42 43 42 43 43 43 43 42 42 41 40 38 37 35 33 31 30 28 27 26 27 26 26 25 24 23 22 21 20 19 19 19 19 20 21 22 23 23 25 26 26 27 27 27 27 27 27 28 27 27 27 26 25 24 24 23 22 23 22 22
52 52 52 52 52 51 50 50 49 49 48 47 47 46 46 45 45 44 44 44 43 43 43 43 43 43 43 43 43 43 42 42 43 43 42 42 41 40 39 37 35 33 31 30 28 28 27 26 27 26 25 25 24 23 22 21 20 19 18 18 18 19 20 21 22 23 24 25 26 27 28 28 28 28 28 29 29 29 29 29 28 27 26 25 24 23 23 22
51 51 51 51 51 51 50 50 50 49 49 48 48 47 47 46 45 45 45 45 44 44 43 43 43 43 43 43 43 43 42 42 42 42 42 41 40 39 37 36 33 31 29 28 28 27 27 27 26 26 25 24 23 22 21 20 19 19 18 18 18 18 19 20 21 22 23 24 25 26 27 28 29 29 29 30 30 30 31 31 30 29 29 28 27 26 24 23
50 50 50 50 50 50 50 50 49 49 49 48 48 48 47 46 46 46 45 45 44 44 44 43 43 42 42 42 42 42 41 41 42 41 40 39 38 37 36 34 32 29 28 28 27 27 27 27 26 25 24 23 22 21 20 20 19 18 18 18 18 18 19 20 20 21 22 23 24 26 27 28 29 29 30 30 31 31 32 32 31 31 31 30 30 29 27 26
50 50 49 49 49 49 49 49 48 48 48 48 47 47 47 46 45 45 45 45 44 43 43 42 42 41 41 41 41 40 40 40 41 40 39 38 36 35 34 33 30 28 28 27 27 27 27 27 26 25 24 23 22 21 20 19 19 19 18 18 18 18 18 19 20 21 21 22 23 25 26 27 28 29 30 31 31 32 32 32 32 31 32 32 31 31 30 29
49 49 49 48 48 48 47 47 47 47 47 46 46 46 46 45 44 44 43 43 42 42 41 41 40 40 39 39 39 39 39 39 39 38 37 36 34 34 33 32 30 28 27 27 27 28 28 27 26 25 24 23 22 21 20 19 19 19 19 19 19 18 19 19 20 21 22 22 23 24 25 26 27 29 30 31 31 32 32 33 33 33 33 32 32 32 32 32
49 49 48 48 47 47 46 46 46 45 45 45 44 44 44 43 43 42 41 41 41 40 39 39 38 38 38 37 37 37 37 37 37 36 35 34 33 33 32 31 29 28 28 28 28 28 28 27 26 25 24 23 22 21 20 19 19 19 19 19 19 19 19 19 20 21 22 23 23 24 25 25 27 28 29 30 31 31 32 33 33 33 34 34 33 32 33 33
49 48 48 47 46 46 45 44 44 44 43 43 43 42 42 42 41 40 39 39 39 38 37 37 36 36 35 35 35 34 35 35 35 34 33 32 32 32 31 31 29 29 28 28 28 28 28 27 26 25 24 23 22 21 20 19 19 19 19 20 20 20 20 20 20 21 22 23 24 24 25 26 26 27 28 30 31 31 32 33 33 34 34 34 34 34 34 34
50 49 48 46 45 44 44 43 43 42 42 41 40 40 40 39 39 38 37 37 36 35 35 34 34 34 33 33 33 32 33 33 33 33 32 31 31 31 31 30 29 29 29 29 29 29 28 27 27 26 25 24 23 22 20 20 20 19 19 20 21 21 20 20 20 21 22 23 24 25 25 26 26 27 27 28 30 31 32 32 33 34 34 35 35 35 35 34
50 49 48 46 44 43 43 42 42 41 40 39 39 38 38 37 37 36 35 35 34 33 33 32 32 32 31 31 31 31 32 32 32 32 31 30 30 31 30 30 29 29 29 29 29 29 28 28 27 27 26 25 24 23 22 21 21 20 20 21 22 22 21 21 20 21 22 23 24 24 25 26 27 27 28 28 29 30 30 31 32 33 33 34 35 36 36 36
50 49 49 47 44 43 42 42 41 40 39 38 37 37 36 36 35 34 34 33 33 32 31 31 30 30 30 30 30 30 30 30 31 31 30 30 30 30 30 29 28 29 29 29 29 29 28 28 28 28 27 26 26 25 24 23 22 22 21 23 23 23 22 22 21 21 22 23 23 24 25 25 26 27 27 28 29 29 29 30 30 31 32 33 34 35 36 37
50 49 49 47 45 44 42 41 40 39 38 37 36 36 35 35 34 33 33 32 32 31 30 29 29 28 28 29 29 29 29 29 30 30 29 29 29 29 28 28 28 28 29 29 29 29 29 29 28 28 28 27 27 26 26 26 25 24 24 25 25 24 24 23 23 23 23 23 23 24 26 25 25 26 27 27 28 29 29 29 30 30 31 32 33 34 35 36
49 49 49 48 46 45 43 41 39 38 37 36 36 35 35 34 34 33 32 32 31 30 29 28 28 27 27 27 28 28 28 28 29 28 28 28 28 28 27 27 27 28 28 28 29 29 29 29 28 28 28 28 27 27 27 27 26 25 26 27 26 26 26 24 25 25 24 24 24 25 27 27 25 26 27 27 28 28 29 29 30 30 31 31 32 32 33 34
49 49 48 47 46 45 43 41 39 37 36 35 35 34 34 34 33 33 32 31 31 30 29 28 27 26 26 26 27 27 27 27 27 27 27 27 27 26 25 25 26 27 27 28 28 28 28 28 28 28 28 28 27 27 27 27 27 26 27 28 27 27 27 27 27 27 26 26 25 25 27 27 26 26 27 27 28 28 29 29 31 31 31 31 32 32 32 33
48 48 48 47 46 45 43 41 39 37 36 35 34 34 34 34 33 32 31 31 31 30 28 27 26 25 25 25 25 25 25 26 26 26 26 26 26 24 24 24 25 26 26 26 27 27 27 27 27 27 27 27 26 26 26 27 27 26 27 29 28 27 28 28 29 29 28 27 26 25 26 27 26 26 26 27 28 29 30 30 32 32 32 32 32 32 32 32
48 48 47 46 45 45 43 41 39 37 36 34 34 34 33 33 32 32 31 31 31 30 28 27 25 24 24 24 24 24 24 25 25 24 24 25 24 23 23 24 24 25 25 25 25 26 26 26 25 26 26 26 26 25 26 26 27 27 28 29 28 28 28 29 29 29 28 27 27 26 26 27 26 26 26 26 28 29 30 31 32 33 32 32 31 31 32 32
47 47 46 45 45 44 43 41 39 37 35 34 33 33 32 31 31 31 31 31 31 30 28 27 25 24 23 23 23 23 24 24 24 23 23 24 23 22 22 23 24 24 24 24 24 24 25 25 24 25 25 25 26 26 26 26 27 28 29 29 29 29 29 29 30 30 29 28 28 27 27 27 26 26 25 26 28 29 30 30 32 33 32 32 31 31 31 32
46 45 45 45 44 43 42 41 39 37 36 34 33 32 31 31 31 31 31 31 31 30 28 27 26 24 24 23 23 24 24 24 24 23 23 23 23 23 23 24 24 24 24 23 23 23 23 23 24 25 25 26 26 27 27 26 27 28 29 30 30 29 29 30 31 31 30 29 29 28 27 27 26 26 26 27 29 30 30 30 31 32 32 31 31 31 31 32
45 44 44 44 44 43 42 40 39 38 36 34 33 32 31 30 30 30 31 31 31 30 28 27 26 25 24 24 24 24 24 24 24 23 23 24 24 24 24 24 24 24 23 23 22 22 22 22 23 25 25 26 26 27 27 27 27 27 29 30 30 29 29 30 31 32 31 30 30 28 28 27 26 26 27 28 30 30 30 30 30 31 31 31 31 31 31 31
44 43 43 43 43 42 41 40 39 38 36 34 33 32 30 29 29 29 30 30 30 29 28 27 26 25 25 25 25 25 24 24 24 23 23 23 23 24 23 23 23 23 23 22 21 21 22 22 24 25 25 26 27 27 27 27 27 28 29 30 30 29 29 30 31 31 31 30 30 29 29 28 26 26 27 28 30 30 29 29 30 31 31 31 32 32 31 30
43 43 42 42 42 42 41 40 39 37 36 34 32 31 30 29 28 28 28 28 29 28 28 27 26 26 25 25 25 25 25 25 24 24 24 23 23 24 23 23 24 24 23 23 22 22 23 23 24 25 26 27 27 28 28 28 27 28 28 30 30 28 29 30 31 31 30 29 29 29 28 28 27 26 27 28 30 30 29 28 29 30 30 31 32 32 32 31
42 42 41 41 41 41 40 39 38 37 35 33 32 30 29 28 27 27 27 28 29 29 28 27 27 26 26 26 26 26 26 26 26 25 25 25 25 25 25 25 25 25 25 24 24 24 24 24 25 26 27 27 28 28 29 28 27 27 28 29 29 28 29 30 30 31 29 28 28 27 28 28 25 25 27 28 29 29 28 28 28 29 30 31 31 32 32 32
42 41 41 40 40 39 39 38 37 36 34 32 30 29 28 27 26 27 27 28 29 28 28 28 27 27 27 27 26 26 27 27 27 27 27 27 26 26 26 26 26 26 26 26 26 26 25 25 26 27 27 28 28 28 29 28 27 27 27 28 28 28 29 29 30 30 28 27 26 25 27 27 24 24 25 27 27 27 27 27 28 28 29 30 31 31 32 32
41 40 40 39 38 38 37 37 36 34 32 30 29 28 28 27 26 27 27 28 28 28 28 28 28 28 28 27 27 27 27 28 28 28 28 28 28 27 27 27 26 26 26 26 27 27 27 27 27 27 28 28 27 27 28 28 26 26 26 26 26 27 28 28 29 28 27 27 26 24 26 26 24 22 22 24 25 25 26 27 27 28 28 29 29 30 30 31
39 39 38 37 37 37 36 35 33 32 30 30 29 28 27 27 27 27 27 28 28 28 29 28 28 28 28 28 28 28 28 28 28 29 29 29 28 28 27 26 26 26 27 27 28 28 28 28 28 28 27 27 26 26 27 27 26 25 25 25 25 25 26 26 27 26 25 27 26 23 23 25 25 21 20 23 23 22 22 23 25 27 28 28 28 28 29 29
38 37 37 36 36 35 34 32 31 30 29 29 28 27 27 27 26 27 27 28 28 29 29 28 29 29 29 29 29 29 29 29 29 29 29 29 28 28 27 27 26 27 27 28 29 29 28 28 28 27 27 26 26 26 27 27 26 25 25 24 24 24 24 24 24 24 24 25 25 23 21 22 23 21 20 21 20 19 18 17 20 24 27 28 27 27 27 28
36 36 35 35 34 33 31 30 29 28 28 27 27 26 26 26 26 27 27 28 28 28 28 28 29 29 29 29 29 29 29 29 29 29 29 28 28 28 28 27 27 28 28 28 29 29 28 28 28 27 27 27 27 26 27 27 26 24 23 22 22 21 21 21 22 22 23 23 23 23 20 20 22 20 18 17 16 17 15 13 17 23 27 28 27 26 26 26
34 33 33 32 31 30 29 28 27 27 26 26 25 26 26 26 26 27 27 28 28 28 28 28 28 28 29 29 29 29 29 29 29 28 29 29 29 29 28 28 28 28 29 29 29 29 28 28 28 28 27 27 27 27 26 26 24 22 20 19 19 19 19 20 20 21 22 21 22 22 20 18 20 19 17 17 16 15 12 9 14 24 29 28 26 25 24 24
30 30 29 29 28 27 26 26 25 25 25 25 25 25 25 25 26 27 27 28 27 27 27 28 28 28 28 28 28 29 29 29 29 29 29 29 29 29 29 28 28 28 29 29 29 29 28 28 28 28 28 27 26 25 24 23 22 20 18 17 17 18 19 19 20 21 20 21 21 22 20 19 20 20 18 17 17 17 15 13 20 29 30 27 25 24 23 22
27 27 26 26 25 25 24 24 24 24 24 24 25 25 25 26 26 27 27 27 27 27 27 28 28 28 29 29 29 29 29 29 29 29 29 29 28 29 28 28 28 29 29 29 29 29 29 29 28 27 25 23 22 22 22 22 21 19 18 18 18 19 20 19 20 21 20 21 21 21 21 20 21 21 19 18 18 19 18 20 26 29 27 24 22 21 20 20
25 24 24 24 24 24 23 23 24 24 24 25 25 25 26 26 27 27 27 27 26 27 28 28 29 29 29 29 29 29 29 29 29 28 28 28 28 28 28 28 28 29 29 29 29 29 29 27 26 24 22 21 21 22 22 22 21 20 19 19 19 20 21 19 17 17 19 20 21 21 21 21 22 22 21 20 20 20 20 22 24 24 23 22 20 18 18 18
23 23 23 23 23 23 23 23 23 24 24 25 25 26 26 26 27 27 27 27 27 28 29 29 29 29 29 29 29 28 28 28 27 27 27 27 27 28 28 28 29 29 29 29 28 27 26 24 23 22 21 22 23 23 23 22 22 21 21 20 21 21 21 19 16 15 17 19 20 21 21 22 22 21 21 22 20 20 20 21 22 22 22 21 19 19 17 16
23 22 22 22 22 22 22 23 23 23 24 24 25 26 26 27 27 28 28 28 28 29 29 29 29 28 29 28 28 27 27 26 26 26 26 27 27 28 28 29 29 29 28 27 25 24 24 23 22 22 23 23 24 24 24 23 22 22 21 21 21 21 20 19 18 16 17 18 19 19 19 19 20 20 21 22 21 21 21 20 21 22 21 20 19 19 18 17
21 21 21 20 20 21 21 21 22 23 23 24 25 26 27 28 28 28 29 28 29 28 28 28 28 28 28 27 27 26 26 26 26 26 26 26 27 27 27 27 27 26 25 24 24 23 22 23 23 22 22 22 22 22 22 22 21 20 20 20 20 20 19 18 19 18 17 18 19 19 18 18 19 18 20 21 21 21 20 19 21 23 23 20 19 19 18 17
19 19 19 19 19 20 21 22 22 23 24 25 26 27 28 28 29 29 28 28 27 27 27 27 27 27 27 27 27 26 26 25 25 25 24 25 25 25 26 26 25 25 23 22 21 20 20 21 20 18 18 18 18 19 20 20 19 18 17 17 16 16 16 16 16 18 18 18 19 19 19 19 17 15 18 19 18 18 18 16 17 21 24 23 20 19 19 17
19 19 19 19 20 21 21 22 22 23 24 25 26 27 27 28 28 28 27 27 26 26 26 26 26 26 26 26 25 25 24 23 22 22 23 23 24 24 24 24 23 22 20 18 17 17 17 19 18 16 15 16 16 17 18 18 17 15 13 13 13 13 14 13 14 16 18 18 18 19 19 18 15 13 14 12 8 8 9 10 14 19 23 23 20 19 20 19
19 19 19 19 19 18 18 18 18 19 20 21 22 24 25 25 25 25 25 24 24 24 23 23 23 23 23 23 22 22 21 20 20 21 22 22 22 22 21 21 19 17 16 14 14 13 13 15 15 14 13 12 14 15 14 13 13 11 10 12 11 12 13 13 13 14 16 17 18 18 18 16 14 15 17 15 12 11 8 10 18 24 24 22 19 18 19 19
17 17 16 15 13 12 11 10 10 11 13 15 17 19 20 21 21 21 21 21 20 20 20 19 19 19 19 19 18 18 17 18 18 18 18 17 17 17 16 15 14 13 12 11 10 10 10 10 9 9 8 6 8 9 7 6 7 6 7 8 9 10 11 12 13 14 16 17 18 18 18 15 15 18 19 18 18 17 15 16 20 23 21 20 19 18 18 18
16 14 13 11 9 7 6 4 4 5 7 9 11 12 14 16 16 17 16 16 16 15 14 14 14 13 13 13 13 12 13 13 13 13 13 12 11 12 11 10 9 8 8 7 5 5 4 3 3 3 2 1 2 3 4 4 5 6 6 7 8 8 9 10 11 13 14 16 17 18 16 14 16 19 19 18 18 16 14 15 16 18 18 17 17 17 17 17
15 13 12 10 8 7 5 4 3 2 2 3 4 5 7 8 10 11 11 10 9 9 8 8 8 7 8 8 8 8 9 9 8 8 7 6 6 6 5 4 3 2 0 1 2 2 2 2 1 0 1 1 2 3 4 5 5 7 8 8 9 9 10 9 9 10 11 12 13 14 14 13 16 18 18 19 18 16 14 13 14 15 16 15 15 14 15 16
14 12 11 9 8 7 6 5 5 3 2 3 3 4 5 6 7 7 7 6 6 6 6 6 6 6 6 6 6 6 5 4 4 3 2 3 3 3 3 4 4 5 5 5 5 5 4 3 1 1 2 2 3 4 5 5 6 7 8 9 9 10 11 11 10 10 11 11 12 13 13 14 16 17 18 18 18 17 15 13 13 13 14 15 15 14 14 14
13 11 9 8 7 7 6 6 6 6 5 4 4 5 6 7 9 10 10 10 10 9 8 7 7 7 6 6 6 5 5 6 6 7 7 7 7 7 6 6 6 6 6 5 5 5 4 2 1 1 2 3 4 5 6 6 7 8 8 9 9 10 11 11 11 11 11 12 13 14 15 16 17 17 18 18 18 18 17 15 14 13 13 14 15 15 14 13
10 9 8 8 7 7 6 6 6 7 6 6 5 5 6 7 8 9 10 10 10 10 9 9 9 8 8 8 8 8 8 8 8 8 7 7 7 6 6 5 5 4 4 4 3 3 2 1 1 2 3 4 4 5 6 6 7 8 9 9 9 10 10 11 11 11 11 12 13 14 15 17 19 19 20 20 20 20 20 19 18 15 14 14 14 15 15 14
10 9 9 9 9 8 8 7 7 7 8 8 7 7 7 8 9 9 9 9 9 8 8 8 8 8 8 8 8 8 7 7 6 6 5 5 5 4 3 3 2 2 2 2 1 1 1 2 3 4 5 6 7 7 8 8 8 8 8 9 9 9 10 10 11 11 11 11 12 12 12 16 19 20 21 22 21 22 22 22 21 19 17 16 15 16 16 15
11 11 11 10 10 10 10 10 9 9 9 9 9 9 9 9 9 10 10 9 9 8 8 7 7 7 7 7 7 7 6 5 5 4 3 3 2 2 1 0 0 0 1 1 1 1 2 3 4 5 6 7 8 9 9 9 9 9 9 9 9 9 9 10 11 11 12 12 12 12 11 13 16 18 18 19 19 19 20 20 20 20 19 18 18 17 17 16
12 12 12 12 12 12 12 12 12 11 11 11 11 11 11 11 11 10 10 10 10 9 9 8 7 7 6 6 6 6 6 5 4 4 3 2 2 1 1 0 0 1 1 1 1 1 2 2 3 4 6 7 8 9 10 11 11 12 11 10 10 10 10 11 12 12 13 13 14 13 11 12 14 16 16 16 16 16 16 16 16 17 17 16 16 17 17 16
13 13 13 13 13 13 13 13 12 12 11 11 12 12 13 13 12 12 12 12 11 11 11 10 9 8 7 7 6 6 6 6 5 5 4 4 3 2 2 1 1 1 1 1 1 1 1 2 3 3 5 6 7 8 9 11 12 13 14 14 13 13 13 13 14 14 14 15 16 16 15 14 15 16 16 16 15 15 14 14 14 14 14 14 14 14 14 15
14 14 14 14 14 13 13 13 13 12 12 12 12 12 13 13 13 13 13 13 13 12 12 11 10 10 9 8 8 7 7 7 6 5 4 4 3 2 2 2 3 3 4 3 3 2 2 2 3 3 4 5 6 8 9 11 12 13 14 15 15 15 16 16 17 17 17 17 17 18 18 18 18 18 18 18 18 18 17 17 16 14 14 15 15 15 15 16
15 15 14 15 14 14 13 12 12 12 12 11 11 11 12 12 12 12 12 12 12 12 12 11 11 10 9 9 8 8 7 7 6 5 4 3 2 1 2 3 4 4 4 4 5 5 5 6 6 6 6 7 8 9 11 12 13 14 15 15 15 16 16 17 18 19 19 19 19 20 21 21 21 20 20 20 20 21 22 21 19 17 16 17 17 18 19 18
16 16 15 15 15 14 12 11 10 10 10 10 10 10 10 9 9 9 9 9 9 8 8 9 9 8 8 7 7 6 6 6 5 4 2 1 1 2 3 4 4 4 5 5 6 7 8 9 10 10 10 10 11 12 14 15 16 17 17 17 17 17 17 18 19 20 20 20 20 21 22 22 23 22 23 23 23 23 24 23 21 20 19 20 21 22 21 20
17 16 15 15 14 14 12 10 9 8 8 8 8 8 7 7 7 7 7 7 6 6 5 5 5 5 5 4 4 4 4 3 2 1 1 3 4 5 6 6 7 7 7 7 8 9 10 12 13 14 13 14 15 15 16 18 20 21 21 21 21 21 21 21 22 23 24 24 23 22 23 23 24 24 24 24 24 24 24 24 23 21 21 23 25 26 25 23
Wind_Direction
231 232 233 233 234 236 237 237 238 239 240 241 242 243 244 245 247 249 251 253 256 257 260 262 264 266 268 270 272 275 277 279 281 283 284 286 288 289 290 292 293 294 294 294 295 296 297 297 296 294 294 295 294 291 288 283 278 274 269 266 263 260 257 254 251 251 251 251 250 249 247 247 247 246 245 245 245 245 245 245 247 248 247 247 248 250 252 254
230 231 232 233 234 235 236 238 239 239 240 241 242 243 244 246 247 249 251 253 255 257 259 262 264 266 268 270 272 274 276 278 280 281 283 284 286 287 288 289 290 291 291 292 294 295 296 295 294 294 296 297 295 293 289 286 282 277 272 266 262 259 257 255 252 250 249 249 250 250 249 248 247 247 246 246 245 245 246 245 245 248 249 249 249 250 251 253
229 231 232 233 233 235 236 237 239 240 241 241 243 244 245 246 248 250 251 253 255 257 259 261 264 266 268 270 272 274 275 277 278 280 281 283 284 285 286 287 288 288 289 291 292 294 294 293 293 295 298 297 295 292 290 287 284 280 275 269 263 259 255 254 253 251 250 248 248 249 249 249 248 247 247 247 246 246 246 246 245 246 248 250 249 249 250 251
229 230 231 232 233 234 235 237 238 240 241 242 243 244 245 247 248 250 252 254 256 257 259 261 263 265 267 269 271 273 274 276 277 278 280 281 282 283 284 284 285 286 287 289 291 291 292 292 293 296 297 296 294 291 289 287 285 281 277 272 268 263 259 255 253 252 252 250 249 248 248 248 248 247 247 247 247 246 246 246 246 246 247 248 248 248 248 249
228 229 230 231 233 234 235 236 238 239 241 242 243 245 246 247 249 250 252 254 256 257 259 261 263 265 267 269 271 272 273 274 276 277 278 279 280 281 281 282 282 284 286 287 288 289 290 290 293 295 296 295 293 291 290 289 287 283 279 275 271 267 264 261 257 254 253 252 251 250 249 248 247 247 246 246 246 247 247 247 247 247 247 247 247 247 247 248
228 229 230 231 232 233 234 236 237 239 240 242 243 244 246 247 249 250 252 254 256 257 259 261 262 264 266 268 270 271 272 273 275 276 276 277 278 278 279 279 280 282 284 285 286 287 288 289 292 294 296 295 294 292 291 290 288 285 281 278 274 270 268 265 263 260 257 254 252 251 250 250 249 248 246 246 246 246 247 248 248 248 248 248 248 249 248 248
227 228 229 230 231 232 233 235 236 238 240 241 243 244 246 247 248 250 252 254 255 257 259 261 262 264 265 267 268 270 271 272 273 274 274 275 276 276 277 277 278 280 281 283 284 285 287 289 291 294 296 296 295 293 292 290 288 285 283 280 276 273 270 269 267 265 263 260 256 253 251 250 249 249 248 247 247 247 247 248 248 248 249 249 249 250 250 249
226 227 228 229 230 231 232 234 236 237 239 240 242 244 245 247 248 250 251 253 255 257 258 260 262 263 264 265 267 268 269 270 271 272 272 273 273 274 275 276 277 278 280 281 282 284 286 288 291 292 294 296 295 294 292 289 287 284 283 280 276 274 272 270 269 268 266 265 262 259 255 251 248 248 248 248 248 248 248 248 248 249 250 250 250 249 250 251
224 226 227 228 229 231 232 233 235 236 238 239 241 243 245 246 248 249 251 252 254 255 257 259 260 261 262 264 265 266 267 268 269 270 270 271 272 272 273 274 276 277 279 280 281 283 285 288 290 291 292 293 294 294 292 289 285 283 282 279 276 273 271 270 269 268 267 266 265 263 261 257 253 249 247 247 248 248 249 249 250 250 251 252 252 251 251 251
223 224 226 227 228 230 231 232 234 235 237 239 240 242 244 246 247 248 249 251 253 254 255 257 258 259 261 262 263 264 265 266 267 268 269 270 271 271 272 273 275 277 278 280 281 283 285 287 288 289 290 291 292 292 291 287 285 283 281 279 277 274 271 268 268 268 267 266 265 264 263 262 260 256 253 250 248 247 248 249 249 251 251 253 253 254 253 252
222 223 225 226 227 229 230 231 233 234 236 237 239 240 242 244 245 247 248 250 251 252 253 254 256 258 259 260 261 262 263 264 266 267 268 269 270 271 271 273 275 277 278 280 281 283 284 285 286 287 288 289 290 289 288 286 284 283 281 279 277 275 272 269 268 268 267 266 265 264 263 263 263 261 259 257 254 252 250 249 248 249 250 251 253 254 255 254
220 222 224 225 225 227 228 230 231 233 234 236 237 238 240 242 243 245 246 248 249 250 251 253 255 257 258 260 260 261 262 263 265 266 268 269 269 270 272 274 276 277 278 280 281 283 284 284 285 286 287 288 288 287 286 285 283 282 281 280 278 277 275 273 270 268 268 267 266 266 264 263 263 262 261 261 260 259 256 254 251 250 250 250 250 252 253 254
219 220 222 223 224 225 227 228 230 231 232 234 235 236 238 239 241 242 244 246 248 248 250 252 254 256 258 259 260 261 262 263 265 266 267 268 269 271 273 275 276 277 278 280 281 282 283 284 285 286 286 286 286 286 286 285 284 283 282 279 279 278 276 274 273 269 267 267 267 267 266 263 262 262 261 261 261 261 261 260 258 255 252 251 250 250 251 252
217 219 221 222 222 224 225 226 228 229 231 232 234 235 236 237 239 241 242 244 246 248 249 251 253 256 258 260 261 262 263 264 265 267 268 269 271 272 275 276 277 278 279 280 281 282 282 283 284 285 286 286 286 287 287 286 285 285 283 280 280 280 278 276 274 271 268 266 265 266 266 265 263 263 263 262 261 260 260 260 260 258 255 253 251 250 250 251
216 217 219 220 221 222 223 224 226 227 229 231 232 233 234 235 237 239 240 243 245 247 249 251 253 255 259 261 262 263 264 266 267 268 269 271 272 274 276 277 277 277 278 279 280 281 282 283 285 286 286 287 288 289 289 288 287 287 285 282 281 281 280 278 275 271 268 266 263 263 264 264 262 262 263 263 262 261 258 257 257 256 255 254 253 251 250 250
214 216 217 218 219 220 221 222 224 225 227 229 231 232 233 234 236 237 239 242 244 247 248 251 253 256 259 262 264 265 266 267 268 269 270 272 274 275 277 276 276 276 277 278 279 281 282 284 285 287 287 288 289 290 289 289 288 287 285 284 283 281 280 279 276 273 270 267 264 262 263 264 262 261 262 262 262 261 259 256 255 254 252 251 252 252 251 251
213 214 215 216 217 219 219 220 222 224 225 227 229 230 232 233 235 236 238 240 243 246 248 250 253 256 259 262 264 265 266 267 268 269 271 272 273 275 275 274 274 275 276 277 279 281 283 285 287 287 288 289 289 288 288 288 288 287 285 284 284 282 282 281 279 277 275 272 269 266 266 267 265 262 262 261 261 260 259 258 256 255 252 250 249 249 250 250
211 212 213 214 216 217 217 218 220 222 223 225 227 229 231 232 233 234 236 239 242 245 247 250 252 254 257 260 262 263 264 265 266 267 268 269 271 272 272 271 272 273 275 277 278 281 283 286 288 288 288 288 288 287 287 288 289 289 287 286 286 286 286 285 283 282 280 278 276 273 271 270 269 266 264 263 261 260 260 259 259 258 255 252 250 248 247 248
210 210 211 213 214 215 215 216 218 220 222 224 225 227 229 231 232 233 235 238 241 244 247 250 252 254 257 259 261 262 262 263 264 264 265 267 268 268 268 270 272 274 275 277 279 281 284 287 287 286 287 288 289 289 289 290 290 290 289 288 288 289 289 287 285 284 283 281 279 278 276 274 273 271 268 266 264 263 263 262 263 262 260 257 254 250 248 247
208 208 209 211 212 213 214 215 216 219 221 222 224 226 228 230 232 233 235 238 241 244 247 251 254 256 258 260 261 263 264 265 266 266 267 268 268 269 270 272 274 275 277 278 281 283 285 285 284 285 287 288 289 289 290 290 290 290 290 290 291 291 290 288 286 285 284 283 282 280 278 276 275 273 270 268 266 264 264 264 265 265 265 263 260 257 253 250
206 207 208 209 210 211 212 213 215 218 220 222 224 226 228 231 233 234 236 239 242 245 248 252 255 257 259 260 263 265 267 269 270 271 271 271 272 273 275 276 276 277 278 280 282 282 282 282 283 285 286 286 286 286 287 288 289 289 290 291 292 292 291 288 287 286 285 285 284 282 280 278 276 273 271 269 267 266 265 265 266 266 266 266 265 263 260 257
204 205 206 207 208 210 211 212 215 217 220 222 225 227 229 233 235 237 238 240 243 245 248 251 254 257 259 261 263 266 269 271 272 273 273 273 274 275 276 277 277 278 280 281 281 280 280 281 283 283 283 282 283 284 284 285 287 288 289 290 291 292 290 289 288 287 286 286 284 282 280 277 275 274 272 269 268 268 267 266 265 266 266 265 264 264 263 261
203 204 205 206 207 209 210 212 214 218 220 222 225 227 230 234 237 238 239 240 243 245 247 250 253 256 258 260 263 265 268 270 271 272 272 273 274 275 276 276 277 279 281 281 281 280 280 280 280 279 279 280 281 282 283 284 285 286 287 288 290 291 289 289 288 286 287 286 283 282 279 276 275 274 272 270 269 269 268 266 265 264 264 263 262 262 262 261
202 203 204 205 207 208 210 212 215 218 221 223 226 228 231 235 237 238 239 241 243 245 247 249 251 254 257 259 261 263 265 267 269 270 272 272 273 274 275 276 278 280 281 281 280 280 279 278 278 278 278 279 280 281 282 283 284 284 285 286 288 288 287 287 287 286 287 285 283 282 279 277 274 272 272 271 271 270 269 266 264 262 261 261 260 260 261 261
201 202 203 204 206 208 210 213 216 219 221 223 226 228 231 235 237 238 240 241 243 245 247 249 251 254 256 259 261 262 264 266 267 269 270 272 273 274 275 277 279 280 281 280 280 279 279 278 278 278 278 279 280 282 282 282 283 284 285 285 286 286 286 286 286 287 287 284 281 280 280 279 275 272 272 273 274 275 276 274 270 266 262 260 260 259 259 260
200 201 202 204 206 208 210 213 216 218 220 223 226 228 232 235 237 238 240 242 244 246 248 250 252 254 257 259 260 262 263 265 267 268 270 272 273 275 277 279 280 280 280 280 279 279 279 279 279 279 280 281 282 283 283 284 285 285 285 286 286 285 285 286 285 286 285 282 281 281 282 283 280 278 275 276 280 282 281 278 274 271 267 263 260 259 259 259
198 199 201 203 206 208 211 213 216 218 220 224 226 230 233 235 237 239 241 243 245 247 248 250 252 255 257 259 260 262 263 265 267 269 271 273 274 276 277 279 279 280 280 279 279 279 280 281 282 283 284 285 285 285 285 286 287 287 287 287 286 285 285 284 285 285 283 283 284 283 282 283 283 281 277 279 283 280 277 280 281 278 273 267 261 258 257 257
197 199 201 203 206 208 211 214 216 218 221 225 228 231 234 236 238 240 242 244 246 248 250 252 254 256 258 259 261 263 265 266 268 270 271 273 274 276 277 278 279 279 279 279 280 280 282 283 285 286 287 288 288 288 289 289 288 288 288 287 286 284 284 284 285 285 284 286 288 287 286 284 282 281 278 275 275 272 272 283 289 280 273 269 264 260 257 256
197 199 201 203 206 208 211 214 217 220 223 227 230 233 235 237 239 241 243 245 247 249 251 253 255 257 258 260 261 263 265 266 268 269 271 272 274 276 277 277 277 278 278 279 281 283 285 286 287 288 289 290 291 291 290 289 288 288 288 287 286 285 285 286 286 285 287 290 287 284 285 285 282 281 276 269 266 265 261 263 268 267 269 272 270 265 262 259
196 198 201 203 205 208 212 215 218 222 225 228 231 233 235 237 239 241 244 246 247 249 251 253 255 257 258 260 262 264 265 267 268 269 271 272 274 275 276 276 277 277 278 280 282 284 286 287 287 288 290 291 290 289 287 286 286 288 287 287 287 286 285 286 286 285 288 288 282 280 281 279 277 276 273 270 265 261 258 255 258 263 271 276 276 274 271 267
194 196 199 201 204 208 211 215 219 223 226 228 231 233 235 237 239 241 244 247 249 251 252 254 256 258 260 262 264 265 267 268 269 271 272 273 274 275 275 276 277 277 278 280 281 282 284 285 286 288 289 288 286 284 283 285 287 288 288 287 285 284 284 285 285 285 286 283 278 279 280 277 276 275 272 268 263 260 258 255 257 263 271 276 279 282 280 276
191 194 196 200 204 208 212 216 220 223 226 229 231 234 235 238 240 242 246 249 251 253 255 257 259 261 262 264 265 266 267 268 270 271 272 273 274 275 275 276 276 277 277 279 280 281 283 285 287 288 287 284 283 283 285 287 289 289 288 287 284 282 283 285 283 282 285 282 277 278 280 279 278 278 275 270 265 264 263 261 263 268 272 276 282 284 283 282
188 192 196 200 205 209 213 217 221 224 228 231 233 235 238 240 242 245 248 250 252 255 257 259 260 262 263 263 264 265 266 267 268 269 270 271 272 273 273 273 273 274 276 278 280 283 286 288 289 288 286 285 285 287 288 289 289 288 287 285 282 282 284 286 282 278 284 284 278 279 282 282 282 282 282 279 275 273 273 274 276 279 279 281 283 283 284 284
187 191 197 202 207 212 216 220 224 227 230 233 236 239 241 243 245 247 249 251 252 254 256 258 259 260 261 262 263 264 265 265 266 266 267 268 268 269 270 271 273 275 278 281 284 288 292 294 293 291 290 290 290 291 291 290 290 288 287 285 283 283 284 284 279 276 281 283 281 282 284 284 284 285 285 285 286 287 287 288 289 288 286 285 285 283 283 284
189 194 199 204 209 214 219 223 227 231 233 236 239 241 243 245 247 248 250 251 252 254 255 257 258 259 259 260 261 262 262 263 264 264 265 267 267 269 270 272 275 278 282 286 290 293 297 296 294 294 294 295 296 294 292 291 290 289 289 288 287 287 285 284 282 278 278 279 280 283 282 281 284 289 292 294 296 297 299 302 303 302 297 291 287 285 284 285
189 195 201 207 212 218 222 226 230 233 236 238 240 242 244 245 246 248 249 251 252 254 255 255 256 257 258 259 259 261 262 263 265 266 267 268 268 270 272 275 280 284 288 293 295 299 300 296 294 294 294 295 295 291 289 289 288 288 289 287 286 287 285 284 284 281 281 280 280 281 281 282 288 297 301 307 312 311 315 317 310 306 301 295 291 288 287 286
190 196 202 208 213 218 223 227 230 234 237 240 242 243 245 246 247 248 249 250 251 252 253 254 255 257 259 260 261 263 264 266 267 268 267 268 270 273 277 281 286 290 295 299 300 300 297 293 292 291 288 289 287 284 283 284 285 286 287 282 278 277 276 275 274 277 282 282 280 281 281 285 292 290 284 289 298 306 324 323 295 284 283 285 288 288 287 286
189 195 200 206 212 216 221 226 231 236 240 243 245 246 248 248 248 249 249 250 250 251 252 254 256 257 259 261 263 264 265 265 265 265 267 270 275 279 283 287 291 295 298 297 296 294 290 287 287 284 282 281 279 281 285 288 291 293 289 284 280 276 274 272 270 274 279 280 280 282 285 289 289 278 268 264 261 260 261 267 269 270 272 278 284 284 282 283
182 187 191 197 201 208 216 224 234 242 247 249 250 250 250 250 250 249 249 249 250 250 252 254 256 258 261 262 264 265 265 265 265 267 270 274 278 281 284 287 290 291 288 285 284 283 283 283 282 281 282 277 274 285 302 314 319 321 310 303 301 293 288 285 281 279 280 282 285 289 292 294 284 277 277 277 275 273 267 261 265 271 277 282 283 281 280 281
168 170 172 174 175 179 186 198 225 248 256 256 256 253 249 247 246 245 245 246 248 251 254 257 260 262 264 265 266 265 264 264 264 266 268 270 271 273 275 276 276 275 275 277 276 270 268 266 265 274 292 293 282 310 338 348 347 345 338 334 330 319 313 308 302 295 292 293 295 297 302 300 284 280 286 288 286 284 280 277 278 282 287 287 285 284 282 281
159 158 158 160 161 162 165 169 176 209 242 242 239 237 233 230 230 231 233 237 241 246 249 251 251 250 249 248 245 243 245 247 248 250 255 257 254 254 252 247 247 247 186 120 121 131 141 146 162 18 17 18 7 353 349 348 343 336 332 331 327 322 321 321 317 313 309 309 306 304 305 298 287 288 292 293 295 296 292 289 288 288 291 290 287 286 285 284
158 159 160 163 166 169 175 177 168 158 163 176 175 172 171 172 176 179 183 185 187 187 188 193 197 198 200 203 205 206 207 205 195 181 163 149 151 154 144 136 128 115 108 108 110 114 121 131 125 74 37 20 16 12 7 2 352 340 333 328 322 317 315 314 314 312 311 311 308 306 305 299 295 297 300 302 305 307 305 301 293 290 290 290 290 289 289 289
165 165 165 169 173 178 184 185 173 158 154 157 161 158 152 148 147 147 148 150 151 152 152 151 149 150 152 149 147 140 131 123 119 117 115 113 115 117 115 114 112 109 108 109 113 120 129 135 125 64 37 28 18 10 7 4 355 348 343 336 328 324 319 315 314 311 307 303 299 299 302 300 298 299 301 304 305 306 307 305 300 296 292 291 292 292 291 290
169 167 166 170 173 174 178 182 172 161 155 154 150 146 141 138 138 140 141 143 143 142 139 134 130 128 125 121 117 115 115 116 116 116 114 112 111 111 111 110 110 110 113 116 118 126 138 161 306 323 342 357 359 355 356 354 349 342 339 337 333 333 330 326 325 321 314 307 303 304 302 297 297 300 300 300 299 300 301 301 301 301 298 297 297 297 296 293
168 164 163 164 165 162 158 159 159 156 152 148 144 140 138 137 139 142 144 145 147 144 141 139 137 135 131 127 124 123 123 123 121 118 115 113 113 113 108 106 107 114 126 137 155 183 212 256 287 303 319 330 334 336 338 339 338 333 332 332 333 334 333 330 330 326 322 321 321 322 314 299 298 302 302 300 299 298 298 299 299 299 299 298 298 298 299 299
165 160 158 156 157 155 150 150 153 153 149 143 139 135 134 135 136 139 141 143 145 144 143 142 141 138 136 133 132 130 128 127 124 122 119 118 117 118 114 95 43 327 301 285 260 261 258 268 280 291 302 309 313 317 321 324 326 327 329 332 334 335 332 328 328 327 328 330 331 334 331 313 305 306 305 304 305 304 303 302 301 300 298 295 293 292 293 294
159 158 157 155 155 154 151 151 153 151 146 141 136 132 129 128 127 126 126 126 127 128 129 128 126 124 121 118 115 112 110 110 111 112 109 106 101 97 105 117 236 272 294 312 314 306 292 278 274 274 279 287 293 299 306 312 317 321 325 329 331 331 329 326 326 327 327 329 327 327 327 318 309 307 309 311 313 312 309 307 306 305 302 298 293 289 287 285
157 160 160 156 155 155 153 151 149 145 140 136 131 127 123 121 119 117 115 113 113 115 116 116 116 116 114 110 105 100 96 95 93 93 90 86 82 71 62 53 55 55 36 39 56 75 257 267 272 273 276 283 288 292 297 303 308 312 316 321 325 325 323 321 321 321 320 321 319 317 316 312 307 307 310 313 313 312 311 312 312 312 311 306 298 290 285 280
162 165 163 157 156 155 152 149 145 139 136 132 128 125 123 121 120 119 119 118 117 117 116 116 115 115 115 113 110 106 102 98 95 93 90 86 78 60 26 13 18 25 27 26 21 9 338 312 307 304 298 297 295 294 295 297 300 302 305 311 316 316 316 316 315 315 314 313 311 309 309 307 305 306 308 308 306 303 302 302 304 308 311 309 305 300 294 289
167 169 165 157 155 155 154 152 146 141 137 134 131 130 129 127 125 123 121 119 119 118 118 117 116 115 114 111 109 106 102 100 98 97 96 92 79 34 359 354 359 6 4 353 342 335 327 318 314 311 306 302 297 294 294 295 295 295 297 301 304 304 306 307 306 306 306 306 305 303 302 302 303 305 304 302 299 295 293 295 297 300 302 301 300 299 295 292
173 172 167 158 156 159 160 158 151 145 141 140 140 139 136 135 133 129 124 120 119 118 116 114 112 110 109 105 102 98 95 94 96 96 94 76 5 341 336 332 333 333 331 325 321 317 312 308 306 306 306 304 300 297 297 297 295 295 296 297 296 296 296 295 295 294 294 294 293 293 295 296 298 298 297 295 294 290 289 292 295 296 293 291 290 289 286 284
177 174 169 165 166 167 167 164 159 155 153 152 150 148 147 149 146 139 133 131 132 128 121 112 104 99 97 90 83 81 77 72 64 36 332 317 316 315 315 314 314 314 313 312 309 304 302 300 299 301 302 301 299 298 298 297 296 297 298 298 298 297 295 294 293 293 291 289 288 288 288 288 289 288 287 287 286 283 280 282 285 285 281 279 279 279 278 277